SWA4298 KSLC-KLAX

Flight info

Callsign SWA4298
Flight time 1h 33m
Altitude 36000
Route ARCHZ1 WINEN DCT LAKRR DCT HAKMN ANJLL4
Aircraft B38M/M-SDE1FGHILORVWXY/HB1

Departure

Time 2026-04-23 00:49
Airport Salt Lake City International Airport (KSLC)

Arrival

Time 2026-04-23 02:23
Airport Los Angeles International Airport (KLAX)
Time Latitude Longitude Altitude Speed Heading
2026-04-23 00:19 40.78833 -111.98664 4232 ft 0 kts 354°
2026-04-23 00:37 40.78825 -111.98663 4231 ft 4 kts 354°
2026-04-23 00:37 40.78798 -111.98659 4231 ft 4 kts 354°
2026-04-23 00:38 40.78772 -111.98656 4232 ft 4 kts 354°
2026-04-23 00:38 40.78746 -111.98652 4232 ft 2 kts 354°
2026-04-23 00:38 40.78744 -111.98652 4233 ft 1 kts 354°
2026-04-23 00:41 40.78745 -111.98652 4233 ft 1 kts 354°
2026-04-23 00:42 40.78762 -111.98619 4233 ft 12 kts 68°
2026-04-23 00:42 40.78773 -111.98506 4235 ft 12 kts 84°
2026-04-23 00:42 40.78780 -111.98394 4235 ft 13 kts 85°
2026-04-23 00:42 40.78789 -111.98260 4233 ft 16 kts 84°
2026-04-23 00:43 40.78799 -111.98122 4234 ft 13 kts 85°
2026-04-23 00:43 40.78800 -111.98104 4234 ft 0 kts 85°
2026-04-23 00:43 40.78800 -111.98103 4234 ft 0 kts 85°
2026-04-23 00:43 40.78800 -111.98098 4234 ft 2 kts 85°
2026-04-23 00:44 40.78803 -111.98050 4235 ft 8 kts 85°
2026-04-23 00:44 40.78809 -111.97969 4236 ft 9 kts 84°
2026-04-23 00:44 40.78820 -111.97873 4237 ft 13 kts 79°
2026-04-23 00:44 40.78829 -111.97740 4235 ft 14 kts 91°
2026-04-23 00:45 40.78771 -111.97683 4235 ft 12 kts 174°
2026-04-23 00:45 40.78684 -111.97672 4236 ft 13 kts 174°
2026-04-23 00:45 40.78581 -111.97661 4234 ft 17 kts 175°
2026-04-23 00:45 40.78438 -111.97644 4228 ft 24 kts 174°
2026-04-23 00:46 40.78282 -111.97626 4228 ft 22 kts 175°
2026-04-23 00:46 40.78140 -111.97609 4227 ft 20 kts 175°
2026-04-23 00:46 40.78007 -111.97592 4261 ft 18 kts 175°
2026-04-23 00:46 40.77952 -111.97587 4262 ft 5 kts 176°
2026-04-23 00:47 40.77902 -111.97562 4262 ft 12 kts 146°
2026-04-23 00:47 40.77789 -111.97519 4263 ft 19 kts 174°
2026-04-23 00:47 40.77663 -111.97504 4266 ft 18 kts 174°
2026-04-23 00:47 40.77565 -111.97458 4264 ft 15 kts 111°
2026-04-23 00:48 40.77581 -111.97345 4262 ft 12 kts 35°
2026-04-23 00:48 40.77631 -111.97334 4263 ft 0 kts 355°
2026-04-23 00:48 40.77632 -111.97334 4263 ft 0 kts 355°
2026-04-23 00:48 40.77736 -111.97345 4263 ft 46 kts 355°
2026-04-23 00:49 40.78301 -111.97411 4229 ft 115 kts 354°
2026-04-23 00:49 40.79279 -111.97532 4250 ft 164 kts 352°
2026-04-23 00:49 40.80514 -111.97657 4630 ft 187 kts 352°
2026-04-23 00:49 40.81846 -111.97812 5395 ft 199 kts 352°
2026-04-23 00:50 40.83258 -111.98001 6122 ft 205 kts 354°
2026-04-23 00:50 40.84196 -111.98132 6721 ft 206 kts 354°
2026-04-23 00:50 40.85652 -111.98307 7441 ft 216 kts 353°
2026-04-23 00:50 40.87206 -111.98447 8066 ft 233 kts 350°
2026-04-23 00:51 40.88853 -111.98576 8763 ft 243 kts 353°
2026-04-23 00:51 40.90595 -111.98754 9386 ft 259 kts 349°
2026-04-23 00:51 40.92437 -111.98996 10011 ft 271 kts 345°
2026-04-23 00:51 40.94088 -112.00019 10839 ft 259 kts 311°
2026-04-23 00:52 40.95301 -112.02678 11890 ft 258 kts 283°
2026-04-23 00:52 40.95495 -112.04253 12501 ft 258 kts 270°
2026-04-23 00:52 40.95203 -112.06606 13032 ft 274 kts 248°
2026-04-23 00:52 40.94091 -112.08751 13431 ft 297 kts 224°
2026-04-23 00:53 40.92365 -112.10434 13834 ft 317 kts 220°
2026-04-23 00:53 40.90569 -112.12229 14283 ft 330 kts 220°
2026-04-23 00:53 40.88723 -112.14086 15021 ft 334 kts 219°
2026-04-23 00:53 40.86847 -112.15949 15692 ft 342 kts 219°
2026-04-23 00:54 40.84932 -112.17860 16384 ft 347 kts 219°
2026-04-23 00:54 40.82990 -112.19787 17078 ft 352 kts 219°
2026-04-23 00:54 40.81028 -112.21740 17873 ft 353 kts 220°
2026-04-23 00:54 40.79056 -112.23691 18549 ft 357 kts 220°
2026-04-23 00:55 40.77083 -112.25639 19112 ft 362 kts 219°
2026-04-23 00:55 40.74828 -112.27180 19725 ft 371 kts 200°
2026-04-23 00:55 40.72275 -112.27862 20331 ft 378 kts 193°
2026-04-23 00:55 40.69661 -112.28444 20891 ft 383 kts 193°
2026-04-23 00:56 40.67019 -112.29011 21485 ft 386 kts 193°
2026-04-23 00:56 40.64350 -112.29568 22040 ft 391 kts 193°
2026-04-23 00:56 40.61649 -112.30121 22605 ft 395 kts 192°
2026-04-23 00:56 40.58921 -112.30675 23151 ft 399 kts 192°
2026-04-23 00:57 40.56176 -112.31310 23659 ft 401 kts 198°
2026-04-23 00:57 40.53510 -112.32387 24126 ft 402 kts 201°
2026-04-23 00:57 40.50871 -112.33464 24659 ft 402 kts 201°
2026-04-23 00:57 40.48198 -112.34558 25190 ft 403 kts 201°
2026-04-23 00:58 40.45522 -112.35652 25711 ft 403 kts 201°
2026-04-23 00:58 40.42842 -112.36747 26227 ft 404 kts 202°
2026-04-23 00:58 40.40157 -112.37843 26734 ft 404 kts 202°
2026-04-23 00:58 40.37471 -112.38935 27270 ft 403 kts 204°
2026-04-23 00:59 40.34816 -112.40017 28043 ft 397 kts 205°
2026-04-23 00:59 40.32185 -112.41091 28553 ft 397 kts 205°
2026-04-23 00:59 40.29539 -112.42168 28967 ft 399 kts 205°
2026-04-23 00:59 40.26887 -112.43246 29410 ft 400 kts 205°
2026-04-23 01:00 40.24263 -112.44312 29819 ft 401 kts 205°
2026-04-23 01:00 40.21592 -112.45395 30186 ft 402 kts 205°
2026-04-23 01:00 40.18915 -112.46492 30497 ft 403 kts 207°
2026-04-23 01:00 40.16416 -112.48059 30633 ft 399 kts 216°
2026-04-23 01:01 40.13952 -112.49804 30863 ft 403 kts 215°
2026-04-23 01:01 40.11484 -112.51532 31232 ft 403 kts 215°
2026-04-23 01:01 40.09006 -112.53273 31527 ft 405 kts 215°
2026-04-23 01:01 40.06524 -112.55018 31883 ft 406 kts 215°
2026-04-23 01:02 40.04037 -112.56764 32194 ft 406 kts 215°
2026-04-23 01:02 40.01542 -112.58515 32503 ft 408 kts 215°
2026-04-23 01:02 39.99040 -112.60271 32875 ft 408 kts 215°
2026-04-23 01:02 39.96534 -112.62029 33217 ft 409 kts 215°
2026-04-23 01:03 39.94056 -112.63764 33566 ft 410 kts 214°
2026-04-23 01:03 39.91545 -112.65519 33839 ft 410 kts 215°
2026-04-23 01:03 39.89036 -112.67276 34232 ft 408 kts 215°
2026-04-23 01:03 39.86534 -112.69023 34531 ft 409 kts 215°
2026-04-23 01:04 39.84026 -112.70773 34807 ft 410 kts 215°
2026-04-23 01:04 39.81509 -112.72529 35066 ft 411 kts 214°
2026-04-23 01:04 39.76460 -112.76046 35594 ft 413 kts 214°
2026-04-23 01:05 39.73929 -112.77806 35847 ft 414 kts 214°
2026-04-23 01:05 39.71385 -112.79574 35931 ft 415 kts 214°
2026-04-23 01:05 39.66140 -112.82645 35929 ft 422 kts 203°
2026-04-23 01:06 39.60563 -112.84881 35921 ft 419 kts 205°
2026-04-23 01:06 39.54987 -112.87114 35934 ft 420 kts 205°
2026-04-23 01:07 39.49409 -112.89335 35935 ft 420 kts 205°
2026-04-23 01:07 39.43824 -112.91554 35912 ft 419 kts 205°
2026-04-23 01:08 39.38316 -112.93740 35923 ft 416 kts 205°
2026-04-23 01:08 39.32783 -112.95931 35918 ft 416 kts 205°
2026-04-23 01:09 39.27246 -112.98120 35921 ft 416 kts 205°
2026-04-23 01:09 39.21707 -113.00307 35893 ft 416 kts 205°
2026-04-23 01:10 39.16181 -113.02485 35914 ft 415 kts 205°
2026-04-23 01:10 39.10661 -113.04657 35921 ft 415 kts 205°
2026-04-23 01:11 39.05180 -113.06810 35916 ft 415 kts 205°
2026-04-23 01:11 38.99655 -113.08976 35917 ft 415 kts 205°
2026-04-23 01:12 38.94135 -113.11138 35903 ft 414 kts 205°
2026-04-23 01:12 38.88608 -113.13298 35918 ft 416 kts 205°
2026-04-23 01:13 38.83065 -113.15462 35916 ft 416 kts 205°
2026-04-23 01:13 38.77556 -113.17608 35911 ft 417 kts 205°
2026-04-23 01:14 38.72008 -113.19766 35905 ft 417 kts 205°
2026-04-23 01:14 38.66451 -113.21924 35934 ft 417 kts 205°
2026-04-23 01:15 38.60895 -113.24078 35927 ft 417 kts 205°
2026-04-23 01:15 38.55338 -113.26230 35940 ft 417 kts 205°
2026-04-23 01:16 38.49822 -113.28360 35938 ft 417 kts 206°
2026-04-23 01:16 38.44263 -113.30507 35944 ft 417 kts 206°
2026-04-23 01:17 38.38712 -113.32645 35944 ft 417 kts 206°
2026-04-23 01:17 38.33157 -113.34782 35927 ft 417 kts 206°
2026-04-23 01:18 38.27602 -113.36915 35919 ft 417 kts 206°
2026-04-23 01:18 38.22048 -113.39043 35897 ft 417 kts 206°
2026-04-23 01:19 38.16525 -113.41158 35902 ft 418 kts 206°
2026-04-23 01:19 38.10965 -113.43282 35881 ft 417 kts 206°
2026-04-23 01:20 38.05401 -113.45406 35851 ft 418 kts 206°
2026-04-23 01:20 37.99831 -113.47530 35896 ft 418 kts 206°
2026-04-23 01:21 37.94268 -113.49649 35891 ft 416 kts 207°
2026-04-23 01:21 37.88859 -113.52023 35894 ft 414 kts 208°
2026-04-23 01:22 37.83408 -113.54403 35892 ft 414 kts 208°
2026-04-23 01:22 37.77963 -113.56768 35881 ft 413 kts 208°
2026-04-23 01:23 37.72532 -113.59124 35890 ft 412 kts 208°
2026-04-23 01:23 37.67109 -113.61473 35893 ft 412 kts 208°
2026-04-23 01:24 37.61718 -113.63804 35902 ft 412 kts 208°
2026-04-23 01:24 37.56289 -113.66147 35857 ft 412 kts 209°
2026-04-23 01:25 37.50892 -113.68474 35891 ft 409 kts 209°
2026-04-23 01:25 37.45502 -113.70793 35896 ft 410 kts 209°
2026-04-23 01:26 37.40145 -113.73094 35891 ft 409 kts 209°
2026-04-23 01:26 37.34763 -113.75404 35882 ft 409 kts 209°
2026-04-23 01:27 37.29380 -113.77711 35875 ft 408 kts 210°
2026-04-23 01:27 37.24015 -113.80006 35890 ft 407 kts 210°
2026-04-23 01:28 37.18647 -113.82295 35902 ft 408 kts 210°
2026-04-23 01:28 37.13310 -113.84574 35894 ft 408 kts 210°
2026-04-23 01:29 37.07946 -113.86860 35900 ft 408 kts 210°
2026-04-23 01:29 37.02571 -113.89145 35907 ft 408 kts 210°
2026-04-23 01:30 36.97198 -113.91427 35888 ft 407 kts 210°
2026-04-23 01:30 36.91827 -113.93704 35885 ft 408 kts 210°
2026-04-23 01:31 36.86448 -113.95981 35886 ft 408 kts 210°
2026-04-23 01:31 36.81106 -113.98239 35868 ft 409 kts 209°
2026-04-23 01:32 36.75713 -114.00516 35870 ft 409 kts 209°
2026-04-23 01:32 36.70323 -114.02788 35872 ft 409 kts 209°
2026-04-23 01:33 36.64929 -114.05057 35874 ft 409 kts 209°
2026-04-23 01:33 36.59532 -114.07328 35817 ft 409 kts 210°
2026-04-23 01:34 36.54159 -114.09581 35893 ft 414 kts 209°
2026-04-23 01:34 36.48719 -114.11859 35850 ft 412 kts 209°
2026-04-23 01:35 36.43278 -114.14135 35841 ft 413 kts 209°
2026-04-23 01:35 36.37837 -114.16407 35840 ft 413 kts 210°
2026-04-23 01:36 36.32409 -114.18669 35892 ft 413 kts 209°
2026-04-23 01:36 36.26983 -114.20932 35843 ft 413 kts 209°
2026-04-23 01:37 36.21524 -114.23203 35840 ft 414 kts 209°
2026-04-23 01:37 36.16066 -114.25471 35831 ft 414 kts 209°
2026-04-23 01:38 36.10626 -114.27783 35834 ft 408 kts 214°
2026-04-23 01:38 36.08311 -114.29597 35790 ft 385 kts 230°
2026-04-23 01:38 36.06427 -114.31915 35843 ft 384 kts 233°
2026-04-23 01:39 36.02793 -114.36677 35837 ft 382 kts 234°
2026-04-23 01:39 35.99229 -114.41538 35854 ft 381 kts 235°
2026-04-23 01:40 35.95702 -114.46407 35853 ft 380 kts 235°
2026-04-23 01:40 35.92181 -114.51272 35853 ft 380 kts 235°
2026-04-23 01:41 35.88653 -114.56141 35872 ft 381 kts 235°
2026-04-23 01:41 35.85125 -114.61004 35846 ft 380 kts 235°
2026-04-23 01:42 35.81596 -114.65861 35894 ft 381 kts 235°
2026-04-23 01:42 35.78059 -114.70723 35895 ft 381 kts 235°
2026-04-23 01:43 35.74524 -114.75573 35922 ft 381 kts 234°
2026-04-23 01:43 35.71008 -114.80392 35948 ft 381 kts 235°
2026-04-23 01:44 35.67471 -114.85233 35940 ft 380 kts 235°
2026-04-23 01:44 35.63935 -114.90065 35955 ft 380 kts 235°
2026-04-23 01:45 35.60395 -114.94895 35933 ft 380 kts 235°
2026-04-23 01:45 35.56853 -114.99721 35949 ft 380 kts 235°
2026-04-23 01:46 35.53329 -115.04518 35959 ft 381 kts 234°
2026-04-23 01:46 35.49738 -115.09313 35959 ft 382 kts 233°
2026-04-23 01:47 35.46096 -115.14072 35965 ft 383 kts 234°
2026-04-23 01:47 35.42446 -115.18843 35976 ft 385 kts 234°
2026-04-23 01:48 35.38781 -115.23629 35979 ft 384 kts 234°
2026-04-23 01:48 35.35144 -115.28371 35992 ft 384 kts 234°
2026-04-23 01:49 35.31480 -115.33142 35957 ft 385 kts 233°
2026-04-23 01:49 35.27800 -115.37926 35986 ft 387 kts 233°
2026-04-23 01:50 35.24102 -115.42727 36000 ft 387 kts 233°
2026-04-23 01:50 35.20406 -115.47518 35998 ft 387 kts 233°
2026-04-23 01:51 35.16711 -115.52301 36003 ft 387 kts 233°
2026-04-23 01:51 35.13023 -115.57068 35969 ft 391 kts 233°
2026-04-23 01:52 35.09245 -115.61905 35996 ft 395 kts 233°
2026-04-23 01:52 35.05455 -115.66752 35995 ft 395 kts 233°
2026-04-23 01:53 35.01660 -115.71600 36002 ft 395 kts 233°
2026-04-23 01:53 34.97864 -115.76437 35999 ft 395 kts 233°
2026-04-23 01:54 34.94066 -115.81279 35996 ft 395 kts 233°
2026-04-23 01:54 34.90264 -115.86115 35991 ft 395 kts 233°
2026-04-23 01:55 34.86460 -115.90947 35989 ft 400 kts 233°
2026-04-23 01:55 34.82608 -115.95833 36001 ft 400 kts 233°
2026-04-23 01:56 34.78772 -116.00691 35958 ft 396 kts 233°
2026-04-23 01:56 34.74960 -116.05550 35974 ft 397 kts 233°
2026-04-23 01:57 34.71143 -116.10411 35969 ft 397 kts 233°
2026-04-23 01:57 34.67353 -116.15232 35971 ft 397 kts 233°
2026-04-23 01:58 34.63535 -116.20082 35962 ft 397 kts 233°
2026-04-23 01:58 34.59713 -116.24930 35966 ft 397 kts 233°
2026-04-23 01:59 34.55900 -116.29759 35972 ft 396 kts 233°
2026-04-23 01:59 34.52087 -116.34582 35978 ft 396 kts 233°
2026-04-23 02:00 34.48301 -116.39363 35975 ft 396 kts 233°
2026-04-23 02:00 34.44509 -116.44145 35787 ft 386 kts 233°
2026-04-23 02:01 34.42657 -116.46501 35117 ft 384 kts 235°
2026-04-23 02:01 34.41210 -116.49166 34321 ft 378 kts 247°
2026-04-23 02:01 34.39996 -116.52019 33347 ft 385 kts 246°
2026-04-23 02:01 34.38761 -116.54914 32449 ft 388 kts 246°
2026-04-23 02:02 34.37537 -116.57830 31708 ft 388 kts 247°
2026-04-23 02:02 34.36327 -116.60738 31130 ft 386 kts 247°
2026-04-23 02:02 34.35127 -116.63637 30490 ft 385 kts 247°
2026-04-23 02:02 34.33932 -116.66530 29891 ft 383 kts 247°
2026-04-23 02:03 34.32763 -116.69434 28957 ft 387 kts 247°
2026-04-23 02:03 34.31592 -116.72353 27825 ft 395 kts 247°
2026-04-23 02:03 34.30384 -116.75353 27093 ft 395 kts 247°
2026-04-23 02:03 34.29191 -116.78315 26617 ft 389 kts 247°
2026-04-23 02:04 34.28007 -116.81251 26183 ft 388 kts 247°
2026-04-23 02:04 34.26828 -116.84173 25765 ft 385 kts 247°
2026-04-23 02:04 34.25657 -116.87072 25368 ft 383 kts 248°
2026-04-23 02:04 34.24493 -116.89948 24957 ft 380 kts 247°
2026-04-23 02:05 34.23335 -116.92811 24555 ft 378 kts 247°
2026-04-23 02:05 34.22183 -116.95656 24082 ft 375 kts 247°
2026-04-23 02:05 34.21092 -116.98449 23652 ft 370 kts 252°
2026-04-23 02:05 34.20331 -117.01399 23156 ft 367 kts 255°
2026-04-23 02:06 34.19547 -117.04325 22616 ft 365 kts 254°
2026-04-23 02:06 34.18752 -117.07230 22110 ft 364 kts 254°
2026-04-23 02:06 34.17951 -117.10115 21565 ft 362 kts 254°
2026-04-23 02:06 34.17148 -117.12988 21077 ft 359 kts 254°
2026-04-23 02:07 34.16359 -117.15840 20574 ft 358 kts 254°
2026-04-23 02:07 34.15581 -117.18685 20100 ft 356 kts 254°
2026-04-23 02:07 34.14803 -117.21517 19638 ft 354 kts 254°
2026-04-23 02:07 34.14031 -117.24328 19163 ft 352 kts 254°
2026-04-23 02:08 34.13272 -117.27083 18697 ft 347 kts 254°
2026-04-23 02:08 34.12527 -117.29789 18222 ft 333 kts 255°
2026-04-23 02:08 34.11808 -117.32396 17700 ft 321 kts 255°
2026-04-23 02:08 34.11112 -117.34917 17117 ft 313 kts 255°
2026-04-23 02:09 34.10450 -117.37398 16451 ft 308 kts 256°
2026-04-23 02:09 34.09834 -117.39865 15796 ft 305 kts 256°
2026-04-23 02:09 34.09222 -117.42303 15152 ft 302 kts 256°
2026-04-23 02:09 34.08613 -117.44722 14526 ft 300 kts 256°
2026-04-23 02:10 34.08009 -117.47112 14103 ft 296 kts 256°
2026-04-23 02:10 34.07408 -117.49488 14014 ft 290 kts 256°
2026-04-23 02:10 34.06831 -117.51750 13988 ft 278 kts 256°
2026-04-23 02:10 34.06273 -117.53939 13713 ft 275 kts 256°
2026-04-23 02:11 34.05714 -117.56132 13244 ft 272 kts 256°
2026-04-23 02:11 34.05158 -117.58308 12802 ft 273 kts 256°
2026-04-23 02:11 34.04595 -117.60507 12351 ft 276 kts 256°
2026-04-23 02:11 34.04028 -117.62726 11912 ft 278 kts 256°
2026-04-23 02:12 34.03460 -117.64945 11549 ft 274 kts 256°
2026-04-23 02:12 34.02899 -117.67132 11244 ft 273 kts 256°
2026-04-23 02:12 34.02347 -117.69288 10899 ft 265 kts 256°
2026-04-23 02:12 34.02024 -117.71429 10569 ft 256 kts 266°
2026-04-23 02:13 34.01830 -117.73561 10292 ft 256 kts 265°
2026-04-23 02:13 34.01630 -117.75690 9994 ft 256 kts 265°
2026-04-23 02:13 34.01424 -117.77828 9622 ft 257 kts 265°
2026-04-23 02:13 34.01221 -117.79943 9286 ft 257 kts 265°
2026-04-23 02:14 34.01013 -117.82085 8934 ft 258 kts 264°
2026-04-23 02:14 34.00804 -117.84237 8577 ft 258 kts 264°
2026-04-23 02:14 34.00595 -117.86381 8244 ft 257 kts 264°
2026-04-23 02:14 34.00385 -117.88522 7923 ft 257 kts 264°
2026-04-23 02:15 33.99964 -117.92814 7261 ft 258 kts 264°
2026-04-23 02:15 33.99755 -117.94951 6955 ft 256 kts 264°
2026-04-23 02:15 33.99546 -117.97075 6625 ft 255 kts 264°
2026-04-23 02:16 33.99337 -117.99194 6292 ft 251 kts 264°
2026-04-23 02:16 33.99135 -118.01224 5951 ft 243 kts 263°
2026-04-23 02:16 33.98935 -118.03222 5613 ft 238 kts 264°
2026-04-23 02:16 33.98741 -118.05178 5272 ft 234 kts 264°
2026-04-23 02:17 33.98548 -118.07120 4933 ft 233 kts 264°
2026-04-23 02:17 33.98354 -118.09066 4570 ft 234 kts 264°
2026-04-23 02:17 33.98161 -118.11006 4226 ft 233 kts 264°
2026-04-23 02:17 33.97968 -118.12938 3870 ft 231 kts 264°
2026-04-23 02:18 33.97777 -118.14842 3543 ft 227 kts 264°
2026-04-23 02:18 33.97592 -118.16692 3199 ft 218 kts 263°
2026-04-23 02:18 33.97416 -118.18451 2865 ft 204 kts 264°
2026-04-23 02:18 33.97264 -118.20069 2528 ft 190 kts 265°
2026-04-23 02:19 33.97115 -118.21597 2254 ft 176 kts 264°
2026-04-23 02:19 33.96970 -118.23034 2175 ft 172 kts 264°
2026-04-23 02:19 33.96824 -118.24483 2128 ft 175 kts 264°
2026-04-23 02:19 33.96673 -118.25945 2171 ft 176 kts 263°
2026-04-23 02:20 33.96525 -118.27395 2122 ft 173 kts 264°
2026-04-23 02:20 33.96379 -118.28821 1956 ft 165 kts 263°
2026-04-23 02:20 33.96246 -118.30119 1762 ft 149 kts 263°
2026-04-23 02:20 33.96121 -118.31333 1590 ft 144 kts 263°
2026-04-23 02:21 33.95999 -118.32521 1405 ft 145 kts 263°
2026-04-23 02:21 33.95877 -118.33710 1218 ft 140 kts 263°
2026-04-23 02:21 33.95766 -118.34861 968 ft 135 kts 264°
2026-04-23 02:21 33.95647 -118.35949 779 ft 128 kts 265°
2026-04-23 02:22 33.95528 -118.36995 638 ft 124 kts 264°
2026-04-23 02:22 33.95435 -118.38016 444 ft 120 kts 266°
2026-04-23 02:22 33.95344 -118.38998 361 ft 118 kts 259°
2026-04-23 02:22 33.95226 -118.39976 168 ft 117 kts 262°
2026-04-23 02:23 33.95142 -118.40899 95 ft 99 kts 262°
2026-04-23 02:23 33.95081 -118.41452 96 ft 49 kts 262°
2026-04-23 02:23 33.95042 -118.41845 97 ft 47 kts 263°
2026-04-23 02:23 33.94946 -118.42182 98 ft 35 kts 227°
2026-04-23 02:24 33.94896 -118.42242 97 ft 1 kts 218°
2026-04-23 02:24 33.94854 -118.42270 100 ft 10 kts 199°
2026-04-23 02:24 33.94758 -118.42279 99 ft 14 kts 174°
2026-04-23 02:24 33.94686 -118.42207 96 ft 20 kts 88°
2026-04-23 02:25 33.94704 -118.42027 97 ft 23 kts 83°
2026-04-23 02:25 33.94723 -118.41829 96 ft 24 kts 82°
2026-04-23 02:25 33.94745 -118.41618 96 ft 27 kts 82°
2026-04-23 02:25 33.94768 -118.41422 97 ft 22 kts 72°
2026-04-23 02:26 33.94796 -118.41249 97 ft 22 kts 83°
2026-04-23 02:26 33.94816 -118.41056 97 ft 24 kts 84°
2026-04-23 02:26 33.94838 -118.40844 97 ft 27 kts 83°
2026-04-23 02:26 33.94861 -118.40617 99 ft 28 kts 84°
2026-04-23 02:27 33.94884 -118.40396 96 ft 25 kts 82°
2026-04-23 02:27 33.94888 -118.40364 96 ft 2 kts 83°
2026-04-23 02:27 33.94892 -118.40316 97 ft 13 kts 83°
2026-04-23 02:27 33.94907 -118.40176 97 ft 15 kts 83°
2026-04-23 02:28 33.94884 -118.40087 96 ft 11 kts 153°
2026-04-23 02:28 33.94842 -118.40034 97 ft 0 kts 122°
2026-04-23 02:28 33.94832 -118.40022 95 ft 4 kts 141°
2026-04-23 02:28 33.94805 -118.40008 97 ft 5 kts 168°
2026-04-23 02:29 33.94789 -118.40012 95 ft 0 kts 210°
2026-04-23 02:29 33.94771 -118.40049 96 ft 6 kts 242°
2026-04-23 02:29 33.94764 -118.40064 95 ft 0 kts 242°
2026-04-23 02:29 33.94764 -118.40065 95 ft 0 kts 242°